Weather in Pelym

Russia / Perm Krai     59°43′47″N   54°22′07″E
temp.,
°C
wind,
m/s
gust,
m/s
humid.,
%
clouds,
%
prec.,
mm/h
press.,
hPa
HPBL,
m
28 february, sun
sun2823:00−19e399689 0.1 1011285
02:00−22e379765 0.0 1011172
05:00−24ene259753 0.0 1013125
08:00−25ene269626 0.0 1013125
11:00−21ene369213 0.0 1013268
14:00−16ene358943 0.0 1013490
17:00−15ene359072 0.0 1014506
20:00−19nne239884 0.0 101531
1 march, mon
mon123:00−20nne2210047 0.0 101721
02:00−22nne1210085 0.0 101820
05:00−23n1110053 0.0 101920
08:00−24wnw0110025 0.0 101920
11:00−18ssw239312 0.0 1019173
14:00−13ssw248723 0.0 1017420
17:00−11s369057 0.0 1015503
20:00−14ssw41094100 0.0 1012327
2 march, tue
tue223:00−15ssw41192100 0.0 1010364
02:00−14s51193100 0.0 1007418
05:00−13s51194100 0.4 1004516
08:00−12s51194100 0.9 1001534
11:00−11s5994100 2.0 999512
14:00−10s4892100 0.6 998536
17:00−10s4894100 1.1 998475
20:00−11s3795100 0.8 997365
3 march, wed
wed323:00−11s3695100 1.4 998258
02:00−11s259699 0.3 997166
05:00−12s239797 0.4 99780
08:00−12ssw129794 0.2 99726
11:00−8nw249493 0.4 998315
14:00−7nnw4792100 0.3 998602
17:00−6nnw4893100 0.8 999688
20:00−8nw31091100 0.2 1000381
4 march, thu
thu423:00−12nw389657 0.2 1001185
02:00−13wnw389657 0.0 1001229
05:00−13w389769 0.1 1001191
08:00−13w389690 0.0 1002241
11:00−11w359484 0.1 1001270
14:00−7sw368887 0.0 999626
17:00−7s499094 0.1 997662
20:00−7s51293100 0.6 993884